TimeEST,TemperatureF,Dew PointF,Humidity,Sea Level PressureIn,VisibilityMPH,Wind Direction,Wind SpeedMPH,Gust SpeedMPH,PrecipitationIn,Events,Conditions,WindDirDegrees,DateUTC
12:15 AM,50.0,48.2,94,29.63,10.0,SW,8.1,25.3,N/A,,Light Drizzle,230,2013-01-31 05:15:00
12:35 AM,50.0,50.0,100,29.63,10.0,WSW,10.4,18.4,0.01,Rain,Light Rain,240,2013-01-31 05:35:00
12:55 AM,50.0,48.2,94,29.62,10.0,SW,11.5,21.9,0.01,,Overcast,230,2013-01-31 05:55:00
1:15 AM,50.0,48.2,94,29.63,10.0,SW,12.7,23.0,N/A,,Overcast,230,2013-01-31 06:15:00
1:35 AM,50.0,46.4,87,29.62,10.0,SW,11.5,20.7,N/A,,Overcast,230,2013-01-31 06:35:00
1:55 AM,50.0,44.6,82,29.64,10.0,SW,9.2,23.0,N/A,,Mostly Cloudy,230,2013-01-31 06:55:00
2:15 AM,50.0,42.8,76,29.65,10.0,WSW,10.4,23.0,N/A,,Scattered Clouds,240,2013-01-31 07:15:00
2:35 AM,48.2,41.0,76,29.66,10.0,SW,10.4,26.5,N/A,,Mostly Cloudy,230,2013-01-31 07:35:00
2:55 AM,46.4,39.2,76,29.67,10.0,SW,13.8,25.3,N/A,,Scattered Clouds,230,2013-01-31 07:55:00
3:15 AM,46.4,39.2,76,29.69,10.0,WSW,15.0,26.5,N/A,,Scattered Clouds,240,2013-01-31 08:15:00
3:35 AM,44.6,37.4,76,29.70,10.0,WSW,11.5,18.4,N/A,,Scattered Clouds,240,2013-01-31 08:35:00
3:55 AM,44.6,35.6,71,29.72,10.0,WSW,9.2,21.9,N/A,,Clear,240,2013-01-31 08:55:00
4:15 AM,44.6,35.6,71,29.72,10.0,SW,11.5,18.4,N/A,,Clear,230,2013-01-31 09:15:00
4:35 AM,42.8,33.8,70,29.74,10.0,WSW,9.2,19.6,N/A,,Clear,240,2013-01-31 09:35:00
4:55 AM,42.8,33.8,70,29.75,10.0,WSW,12.7,25.3,N/A,,Clear,250,2013-01-31 09:55:00
5:15 AM,42.8,33.8,70,29.76,10.0,West,10.4,16.1,N/A,,Clear,260,2013-01-31 10:15:00
5:35 AM,42.8,32.0,66,29.78,10.0,West,9.2,18.4,N/A,,Clear,260,2013-01-31 10:35:00
5:55 AM,41.0,32.0,70,29.79,10.0,West,6.9,17.3,N/A,,Clear,260,2013-01-31 10:55:00
6:15 AM,41.0,32.0,70,29.81,10.0,West,8.1,18.4,N/A,,Clear,260,2013-01-31 11:15:00
6:35 AM,41.0,32.0,70,29.82,10.0,West,5.8,-,N/A,,Clear,260,2013-01-31 11:35:00
7:15 AM,39.2,30.2,70,29.87,10.0,West,8.1,-,N/A,,Clear,260,2013-01-31 12:15:00
7:35 AM,37.4,30.2,75,29.88,10.0,WSW,5.8,-,N/A,,Clear,250,2013-01-31 12:35:00
7:55 AM,37.4,28.4,70,29.90,10.0,West,6.9,-,N/A,,Clear,260,2013-01-31 12:55:00
8:15 AM,39.2,28.4,65,29.91,10.0,West,9.2,-,N/A,,Clear,260,2013-01-31 13:15:00
8:55 AM,41.0,28.4,61,29.93,10.0,West,10.4,17.3,N/A,,Clear,260,2013-01-31 13:55:00
9:15 AM,42.8,28.4,57,29.94,10.0,West,9.2,17.3,N/A,,Clear,270,2013-01-31 14:15:00
9:35 AM,42.8,28.4,57,29.95,10.0,West,6.9,-,N/A,,Clear,260,2013-01-31 14:35:00
9:55 AM,42.8,28.4,57,29.95,10.0,West,10.4,17.3,N/A,,Clear,260,2013-01-31 14:55:00
10:15 AM,44.6,26.6,49,29.96,10.0,WSW,6.9,17.3,N/A,,Clear,250,2013-01-31 15:15:00
10:35 AM,44.6,26.6,49,29.97,10.0,West,9.2,16.1,N/A,,Clear,280,2013-01-31 15:35:00
10:55 AM,46.4,26.6,46,29.97,10.0,West,6.9,16.1,N/A,,Clear,280,2013-01-31 15:55:00
11:15 AM,46.4,24.8,43,29.96,10.0,West,10.4,18.4,N/A,,Clear,270,2013-01-31 16:15:00
11:35 AM,46.4,26.6,46,29.96,10.0,WNW,11.5,16.1,N/A,,Clear,290,2013-01-31 16:35:00
11:55 AM,48.2,24.8,40,29.96,10.0,West,10.4,18.4,N/A,,Clear,260,2013-01-31 16:55:00
12:15 PM,48.2,24.8,40,29.96,10.0,West,6.9,18.4,N/A,,Clear,260,2013-01-31 17:15:00
12:35 PM,48.2,23.0,37,29.95,10.0,WNW,11.5,18.4,N/A,,Clear,300,2013-01-31 17:35:00
12:55 PM,50.0,23.0,35,29.96,10.0,West,9.2,19.6,N/A,,Scattered Clouds,270,2013-01-31 17:55:00
1:15 PM,50.0,24.8,37,29.95,10.0,West,8.1,17.3,N/A,,Scattered Clouds,260,2013-01-31 18:15:00
1:35 PM,50.0,23.0,35,29.95,10.0,West,10.4,21.9,N/A,,Clear,270,2013-01-31 18:35:00
1:55 PM,50.0,23.0,35,29.95,10.0,West,15.0,20.7,N/A,,Clear,260,2013-01-31 18:55:00
2:15 PM,50.0,23.0,35,29.95,10.0,SW,10.4,19.6,N/A,,Scattered Clouds,230,2013-01-31 19:15:00
2:35 PM,51.8,23.0,33,29.96,10.0,West,13.8,21.9,N/A,,Clear,260,2013-01-31 19:35:00
2:55 PM,51.8,23.0,33,29.97,10.0,West,9.2,16.1,N/A,,Clear,260,2013-01-31 19:55:00
3:15 PM,51.8,23.0,33,29.97,10.0,West,12.7,23.0,N/A,,Clear,260,2013-01-31 20:15:00
3:35 PM,51.8,23.0,33,29.97,10.0,West,13.8,20.7,N/A,,Clear,270,2013-01-31 20:35:00
3:55 PM,51.8,23.0,33,29.98,10.0,West,10.4,19.6,N/A,,Clear,260,2013-01-31 20:55:00
4:15 PM,50.0,23.0,35,29.99,10.0,WSW,10.4,16.1,N/A,,Clear,250,2013-01-31 21:15:00
4:35 PM,50.0,23.0,35,29.99,10.0,West,10.4,17.3,N/A,,Clear,260,2013-01-31 21:35:00
4:55 PM,50.0,23.0,35,29.98,10.0,WSW,5.8,-,N/A,,Clear,250,2013-01-31 21:55:00
5:15 PM,50.0,23.0,35,29.99,10.0,WSW,3.5,-,N/A,,Clear,240,2013-01-31 22:15:00
5:35 PM,48.2,23.0,37,30.00,10.0,WSW,4.6,-,N/A,,Clear,250,2013-01-31 22:35:00
5:55 PM,46.4,23.0,40,30.00,10.0,WSW,3.5,-,N/A,,Clear,250,2013-01-31 22:55:00
6:15 PM,44.6,24.8,46,30.01,10.0,WSW,3.5,-,N/A,,Clear,240,2013-01-31 23:15:00
6:35 PM,42.8,28.4,57,30.02,10.0,SW,3.5,-,N/A,,Clear,230,2013-01-31 23:35:00
6:55 PM,42.8,26.6,53,30.03,10.0,WSW,3.5,-,N/A,,Clear,240,2013-01-31 23:55:00
7:15 PM,42.8,26.6,53,30.03,10.0,SW,4.6,-,N/A,,Clear,230,2013-02-01 00:15:00
7:35 PM,41.0,26.6,57,30.04,10.0,SW,3.5,-,N/A,,Clear,230,2013-02-01 00:35:00
7:55 PM,41.0,26.6,57,30.05,10.0,SW,3.5,-,N/A,,Clear,220,2013-02-01 00:55:00
8:15 PM,41.0,26.6,57,30.05,10.0,SW,3.5,-,N/A,,Clear,230,2013-02-01 01:15:00
8:35 PM,41.0,24.8,53,30.05,10.0,SW,4.6,-,N/A,,Clear,230,2013-02-01 01:35:00
8:55 PM,41.0,24.8,53,30.05,10.0,SSW,4.6,-,N/A,,Clear,210,2013-02-01 01:55:00
9:15 PM,39.2,24.8,56,30.05,10.0,SSW,3.5,-,N/A,,Clear,210,2013-02-01 02:15:00
9:35 PM,39.2,24.8,56,30.05,10.0,SSW,3.5,-,N/A,,Clear,210,2013-02-01 02:35:00
9:55 PM,37.4,26.6,65,30.06,10.0,SSW,3.5,-,N/A,,Clear,210,2013-02-01 02:55:00
10:15 PM,37.4,26.6,65,30.07,10.0,SSW,4.6,-,N/A,,Clear,210,2013-02-01 03:15:00
10:35 PM,37.4,24.8,60,30.07,10.0,SSW,4.6,-,N/A,,Clear,210,2013-02-01 03:35:00
10:55 PM,41.0,24.8,53,30.07,10.0,SW,5.8,-,N/A,,Clear,230,2013-02-01 03:55:00
11:15 PM,41.0,24.8,53,30.07,10.0,SW,5.8,-,N/A,,Clear,220,2013-02-01 04:15:00
11:35 PM,41.0,26.6,57,30.07,10.0,SW,8.1,-,N/A,,Clear,220,2013-02-01 04:35:00
11:55 PM,39.2,26.6,61,30.07,10.0,SSW,6.9,-,N/A,,Clear,210,2013-02-01 04:55:00